Location: Marcé
(47.5801°N, 0.3280°W)
Time: 09:46:26
(UTC+01:00)

Tiros 1 despin weight - Pass Details

Date: 13 December 2021
Orbit: 592 x 641 km, 48.2° (Epoch: 25 January)

Event Time Altitude Azimuth Distance (km) Brightness Sun altitude
Rises 17:05:52 0° 280° (W) 2,830 ? -0.3°
Reaches altitude 10° 17:09:01 10° 257° (WSW) 1,921 ? -0.7°
Maximum altitude 17:11:27 15° 223° (SW) 1,631 ? -1.0°
Drops below altitude 10° 17:13:53 10° 189° (S) 1,914 ? -1.4°
Sets 17:17:02 0° 165° (SSE) 2,813 ? -1.8°
